Find Tomorrow-S11

NORAD ID: 67399 Int'l Des: 2026-004 Owner: TOMIO Country: US operational
LEOCIRCULARRETROGRADESSO

Live Position

Loading 3D Globe...

About Tomorrow-S11

Description loading...

Upcoming Passes

Passes for default location (London). Set your location on the main map for personalized predictions.

Altitude History

Loading altitude history...

Two-Line Element Set

1 67399U 26004AN 26107.16967825 .00002268 00000-0 11155-3 0 9990
2 67399 97.4574 107.1958 0007126 183.3980 176.7207 15.19024518 14507
Epoch: Apr 17, 2026 • Age: 11 hours

Current Status

Altitude 535.6 km
Velocity 7.59 km/s
Sub-Earth Point -65.99°S, 56.22°E
Launch Date Jan 11, 2026
Age 0.2 years
Type other

Technical Details

Classification Payload
Mass 12.00 kg
Dry Mass 12.00 kg
Total Mass 12.00 kg
Length 0.30 m
Diameter 0.20 m
Span 1.20 m
Shape Box+2 pan
Manufacturer BLCAN
Bus Type Cubesat 6U
Phase Status In Orbit
Owner/State TOMIO/US

Most Searched